Weather History for KHKY - March, 2013

Change the Weather History Date:

Wednesday, March 13, 2013

  Actual Average Record
Temperature  
Mean Temperature 43 °F -  
Max Temperature 53 °F 61 °F 83 °F (1990)
Min Temperature 34 °F 39 °F 15 °F (1960)
Degree Days  
Heating Degree Days 22    
Moisture  
Dew Point 21 °F    
Average Humidity 42    
Maximum Humidity 57    
Minimum Humidity 30    
Precipitation  
Precipitation 0.00 in - - ()
Sea Level Pressure  
Sea Level Pressure 30.03 in    
Wind  
Wind Speed 8 mph (NW)    
Max Wind Speed 21 mph    
Max Gust Speed 29 mph    
Visibility 10 miles    
Events      
Averages and records for this station are not official NWS values.
T = Trace of Precipitation, MM = Missing Value Source: NWS Daily Summary

Daily Weather History Graph

Daily Weather History Graph

Search for Another Location

Airport or City:

Trip Planner

Search our weather history database for the weather conditions in past years. The results will help you decide how hot, cold, wet, or windy it might be!

Date:

Astronomy

Mar. 13, 2013 Rise Set
Actual Time 7:38 AM EDT 7:31 PM EDT
Civil Twilight 7:13 AM EDT 7:57 PM EDT
Nautical Twilight 6:43 AM EDT 8:26 PM EDT
Astronomical Twilight 6:13 AM EDT 8:56 PM EDT
Moon 8:22 AM EDT (3/13) 9:40 PM EDT (3/13)
Length of Visible Light 12h 43m
Length of Day
11h 52m
Waxing Crescent, 4% of the Moon is Illuminated
Mar 13
Waxing Crescent
Mar 19
First Quarter
Mar 27
Full
Apr 3
Last Quarter
Apr 10
New

Hourly Weather History & Observations

Time (EDT) Temp. Windchill Dew Point Humidity Pressure Visibility Wind Dir Wind Speed Gust Speed Precip Events Conditions
12:53 AM 42.1 °F 39.2 °F 26.1 °F 53% 29.96 in 10.0 mi West 4.6 mph - N/A   Clear
1:53 AM 42.1 °F - 27.0 °F 55% 29.97 in 10.0 mi Calm Calm - N/A   Clear
2:53 AM 42.1 °F 40.2 °F 27.0 °F 55% 29.97 in 10.0 mi WNW 3.5 mph - N/A   Clear
3:53 AM 43.0 °F 35.7 °F 26.1 °F 51% 29.96 in 10.0 mi NW 15.0 mph 25.3 mph N/A   Clear
4:53 AM 43.0 °F 39.5 °F 21.0 °F 42% 29.99 in 10.0 mi NW 5.8 mph - N/A   Clear
5:53 AM 42.1 °F 37.7 °F 21.0 °F 43% 30.00 in 10.0 mi NW 6.9 mph - N/A   Clear
6:53 AM 39.0 °F - 21.0 °F 49% 30.01 in 10.0 mi Calm Calm - N/A   Clear
7:53 AM 37.0 °F - 23.0 °F 57% 30.02 in 10.0 mi Calm Calm - N/A   Clear
8:53 AM 41.0 °F 39.0 °F 25.0 °F 53% 30.03 in 10.0 mi West 3.5 mph - N/A   Scattered Clouds
9:53 AM 45.0 °F 41.2 °F 25.0 °F 46% 30.03 in 10.0 mi WSW 6.9 mph - N/A   Mostly Cloudy
10:53 AM 46.9 °F - 21.9 °F 37% 30.04 in 10.0 mi West 13.8 mph 21.9 mph N/A   Mostly Cloudy
11:53 AM 48.9 °F - 26.1 °F 41% 30.03 in 10.0 mi NW 16.1 mph 26.5 mph N/A   Mostly Cloudy
12:53 PM 50.0 °F - 23.0 °F 35% 30.02 in 10.0 mi NW 13.8 mph 21.9 mph N/A   Clear
1:53 PM 50.0 °F - 19.9 °F 31% 30.00 in 10.0 mi WNW 20.7 mph 28.8 mph N/A   Partly Cloudy
2:53 PM 50.0 °F - 21.9 °F 33% 29.99 in 10.0 mi WNW 11.5 mph 27.6 mph N/A   Clear
3:53 PM 48.9 °F - 21.0 °F 33% 30.00 in 10.0 mi NNW 12.7 mph 19.6 mph N/A   Clear
4:53 PM 48.0 °F - 18.0 °F 30% 30.00 in 10.0 mi NW 18.4 mph 27.6 mph N/A   Clear
5:53 PM 46.0 °F 39.0 °F 16.0 °F 30% 30.04 in 10.0 mi NW 17.3 mph 23.0 mph N/A   Clear
6:53 PM 43.0 °F 35.1 °F 16.0 °F 34% 30.06 in 10.0 mi NW 17.3 mph 26.5 mph N/A   Clear
7:53 PM 39.0 °F 34.0 °F 16.0 °F 39% 30.10 in 10.0 mi NW 6.9 mph - N/A   Clear
8:53 PM 37.9 °F 32.1 °F 15.1 °F 39% 30.11 in 10.0 mi NW 8.1 mph - N/A   Clear
9:53 PM 37.0 °F 32.4 °F 15.1 °F 41% 30.12 in 10.0 mi NNW 5.8 mph - N/A   Clear
10:53 PM 36.0 °F 28.5 °F 12.9 °F 39% 30.13 in 10.0 mi NNW 10.4 mph 21.9 mph N/A   Clear
11:53 PM 34.0 °F 28.8 °F 14.0 °F 44% 30.13 in 10.0 mi NNW 5.8 mph - N/A   Clear